Home > Time Zones > World Clock > Weather > Egypt > Cairo > Past weeks

Flag for Egypt Weather past 2 weeks in Cairo, Egypt

Now
90 °F

Clear.


Feels Like: 88 °F
Forecast: 74 / 96 °F
Wind: 12 mph from North

Location: Cairo Airport

Current Time: Sep 5, 2015 at 6:59:25 PM

Latest Report: Sep 5, 2015 at 6:30 PM


Visibility: 10 mi

Pressure: 29.86 "Hg

Humidity: 33%

Dew point: 57 °F

Location of CairoLocation

Historic Weather in Cairo — Graph

°F

Cairo temperature yesterday

Maximum temperature yesterday: 91 °F (at 12:30 PM)
Minimum temperature yesterday: 75 °F (at 3:00 AM)
Average temperature yesterday: 86 °F

Past Weeks' High & Low Weather Summary

 TemperatureHumidityPressure
High97 °F (Aug 27, 2:00 PM)100% (Aug 30, 8:00 AM)29.92 "Hg (Aug 30, 8:00 AM)
Low43 °F (Aug 30, 8:00 AM)20% (Aug 31, 3:00 PM)29.74 "Hg (Aug 22, 3:00 PM)
Average85 °F56%29.85 "Hg
* Reported Aug 21 5:00 PM — Sep 5 5:30 PM, Cairo, Weather by CustomWeather, © 2015

Note: Actual official high and low records may vary slightly from our data, if they occured in-between our weather recording intervals... More about our weather records

Advertising

Cairo weather history for previous 24 hours

 ConditionsComfort  
Time TempWeatherWind HumidityBarometerVisibility
5:30 PM
Sat, Sep 5
91 °FSunny.7 mph34%29.86 "Hg10 mi
5:00 PM91 °FSunny.7 mph32%29.86 "Hg10 mi
4:30 PM91 °FSunny.7 mph28%29.86 "Hg10 mi
4:00 PM91 °FSunny.7 mph28%29.86 "Hg10 mi
3:30 PM91 °FSunny.6 mph30%29.86 "Hg10 mi
3:00 PM93 °FSunny.8 mph28%29.86 "Hg10 mi
2:30 PM93 °FSunny.7 mph28%29.86 "Hg10 mi
2:00 PM93 °FSunny.7 mph28%29.86 "Hg10 mi
1:00 PM91 °FSunny.3 mph30%29.89 "Hg10 mi
12:30 PM91 °FSunny.8 mph32%29.89 "Hg10 mi
12:00 PM90 °FSunny.5 mph36%29.89 "Hg10 mi
11:30 AM88 °FSunny.7 mph40%29.92 "Hg10 mi
11:00 AM88 °FSunny.3 mph38%29.92 "Hg10 mi
10:30 AM86 °FSunny.No wind46%29.92 "Hg10 mi
10:00 AM84 °FPassing clouds.2 mph51%29.92 "HgN/A
9:00 AM82 °FScattered clouds.5 mph55%29.92 "HgN/A
8:00 AM81 °FScattered clouds.7 mph70%29.92 "HgN/A
7:00 AM77 °FScattered clouds.5 mph79%29.92 "HgN/A
6:30 AM77 °FScattered clouds.5 mph79%29.92 "HgN/A
6:00 AM79 °FScattered clouds.5 mph79%29.92 "HgN/A
5:30 AM79 °FClear.5 mph79%29.92 "Hg10 mi
5:00 AM79 °FClear.5 mph79%29.92 "Hg10 mi
4:30 AM77 °FClear.5 mph79%29.89 "Hg10 mi
4:00 AM77 °FClear.5 mph79%29.89 "Hg10 mi
3:30 AM77 °FClear.5 mph79%29.89 "Hg10 mi
3:00 AM77 °FClear.5 mph79%29.89 "Hg10 mi
2:30 AM77 °FClear.5 mph79%29.89 "Hg10 mi
2:00 AM77 °FClear.5 mph79%29.89 "Hg10 mi
1:30 AM77 °FClear.6 mph79%29.89 "Hg10 mi
1:00 AM79 °FClear.6 mph74%29.89 "Hg10 mi
12:30 AM79 °FClear.5 mph74%29.89 "Hg10 mi
12:00 AM79 °FClear.6 mph74%29.89 "Hg10 mi
11:30 PM
Fri, Sep 4
81 °FClear.7 mph70%29.89 "Hg10 mi
11:00 PM81 °FClear.7 mph66%29.89 "Hg10 mi
10:30 PM82 °FClear.7 mph62%29.89 "Hg10 mi
10:00 PM82 °FClear.7 mph58%29.92 "Hg10 mi
9:30 PM82 °FClear.9 mph55%29.92 "Hg10 mi
9:00 PM84 °FClear.9 mph48%29.92 "Hg10 mi
8:30 PM86 °FClear.9 mph46%29.89 "Hg10 mi
8:00 PM86 °FClear.9 mph46%29.89 "Hg10 mi
7:30 PM88 °FClear.8 mph43%29.89 "Hg10 mi
7:00 PM88 °FClear.8 mph43%29.86 "Hg10 mi
6:30 PM88 °FClear.7 mph43%29.86 "Hg10 mi
6:00 PM90 °FSunny.7 mph41%29.86 "Hg10 mi
Weather by CustomWeather, © 2015

See weather overviewHow to use our weather pages